Regional Weather Roundup
Issued by NWS

Home | Current Version | Previous Version | Graphics & Text | Print | Product List | Glossary Off
Versions: 1 2 3 4 5 6 7 8 9 10 11 12 13 14 15 16 17 18 19 20 21 22 23 24 25 26 27 28 29 30 31 32 33 34 35 36 37 38 39 40 41 42 43 44 45 46 47 48 49 50

000
ASUS43 KDMX 281507
RWRIA

WEATHER ROUNDUP FOR IOWA
NATIONAL WEATHER SERVICE DES MOINES IA
1000 AM CDT MON JUL 28 2014

NOTE: "FAIR" INDICATES FEW OR NO CLOUDS BELOW 12,000 FEET WITH NO
SIGNIFICANT WEATHER AND/OR OBSTRUCTIONS TO VISIBILITY.

* - THESE STATIONS ARE NOT NWS STATIONS...THUS NOT UNDER NWS
QUALITY CONTROL.  THEY ALSO DO NOT REPORT WEATHER SUCH
AS PRECIPITATION OR FOG.

IAZ001>003-012>014-020>022-031>034-043>046-281600-
   NORTHWEST IOWA

CITY           SKY/WX    TMP DP  RH WIND       PRES   REMARKS
CARROLL *      CLOUDY    66  59  77 VRB7      30.24S
CHEROKEE *     CLOUDY    61  61 100 N6        30.26S
DENISON *      CLOUDY    63  59  88 NW7       30.25R
LE MARS *      CLOUDY    66  59  77 N9        30.27S
ORANGE CITY *  PTSUNNY   66  57  72 NE8       30.27S
SHELDON *      CLOUDY    64  59  82 N10       30.26S
SIOUX CITY     PTSUNNY   69  58  67 N13G18    30.27R
SPENCER        CLOUDY    65  59  81 N9        30.25S
STORM LAKE *   CLOUDY    61  61 100 N9        30.26S
$$

IAZ055>058-069>071-079>083-090>094-281600-
   SOUTHWEST IOWA

CITY           SKY/WX    TMP DP  RH WIND       PRES   REMARKS
ATLANTIC *     CLOUDY    64  59  82 NE6       30.24S
AUDUBON *      PTSUNNY   68  63  83 N7        30.26R
CLARINDA *     CLOUDY    64  59  82 N7        30.26S
COUNCIL BLFS * PTSUNNY   66  61  82 NW7       30.25S
CRESTON *      MOSUNNY   64  57  77 NE6       30.23S
HARLAN  *      PTSUNNY   64  59  82 VRB7      30.29R
LAMONI         MOSUNNY   65  58  78 NW9       30.22R
RED OAK *      CLOUDY    64  59  82 N3        30.25S
SHENANDOAH *   CLOUDY    66  61  82 NW8       30.26R
$$

IAZ047>049-059>061-072>074-084-281600-
   CENTRAL IOWA

CITY           SKY/WX    TMP DP  RH WIND       PRES   REMARKS
AMES           SUNNY     68  54  60 VRB3      30.21S
ANKENY *       SUNNY     68  55  64 N6        30.22R
CHARITON *     SUNNY     66  57  72 N8        30.21S
DES MOINES     MOSUNNY   71  54  54 NE8       30.21R
GRINNELL*      SUNNY     66  55  68 N5        30.21R
KNOXVILLE *    SUNNY     66  54  63 NE7       30.20R
MARSHALLTOWN   SUNNY     68  55  63 N9        30.20R
PELLA *        SUNNY     70  55  60 N5        30.22R
PERRY *          N/A     68  57  68 E3        30.23S
$$

IAZ004>006-015-016-023>025-035-036-281600-
   NORTH CENTRAL IOWA

CITY           SKY/WX    TMP DP  RH WIND       PRES   REMARKS
ALGONA *       CLOUDY    64  61  88 VRB5      30.24R
CLARION *      PTSUNNY   66  55  68 NW7       30.23R
ESTHERVILLE    PTSUNNY   65  58  78 N10       30.25R
FORT DODGE *   CLOUDY    64  57  77 CALM      30.24R
MASON CITY     CLOUDY    68  58  70 N9        30.23S
FOREST CITY *  CLOUDY    68  61  77 N8        30.22S
IOWA FALLS *     N/A     68  54  60 N8        30.22S
$$

IAZ007>011-017>019-026>030-037>042-050>054-066-281600-
   NORTHEAST IOWA

CITY           SKY/WX    TMP DP  RH WIND       PRES   REMARKS
CEDAR RAPIDS   SUNNY     68  51  54 N14       30.16S
CHARLES CITY * MOSUNNY   66  59  77 N7G14     30.21S
CLINTON *      SUNNY     64  48  55 N18       30.17R
DECORAH *      CLOUDY    66  55  68 VRB7      30.18F
DUBUQUE        SUNNY     64  50  60 N13G24    30.16R
MONTICELLO *   SUNNY     66  52  59 N13G22    30.16S
OELWEIN *      SUNNY     66  55  68 N12       30.20R
WATERLOO       PTSUNNY   67  54  63 N10       30.19R
$$

IAZ064-065-067-068-078-281600-
   EAST CENTRAL IOWA

CITY           SKY/WX    TMP DP  RH WIND       PRES   REMARKS
DAVENPORT      MOSUNNY   66  53  63 N13       30.15R
IOWA CITY      SUNNY     68  54  60 NE10      30.18R
MT. PLEASANT * SUNNY     68  54  60 N10G16    30.17R
MUSCATINE *    SUNNY     68  54  60 N9        30.16R
QUAD CITIES    SUNNY     67  50  54 VRB7G18   30.14R
$$

IAZ062-063-075>077-085>089-095>099-281600-
   SOUTHEAST IOWA

CITY           SKY/WX    TMP DP  RH WIND       PRES   REMARKS
BURLINGTON     SUNNY     68  55  63 N12       30.15R
FAIRFIELD *    SUNNY     66  54  63 N10G16    30.19R
FORT MADISON * SUNNY     70  57  64 N10       30.17R
KEOKUK *       PTSUNNY   68  57  68 NE9       30.16R
OSKALOOSA *      N/A     66  55  68 N8        30.20R
CENTERVILLE *  MOSUNNY   66  59  77 N7        30.22R
OTTUMWA        SUNNY     67  55  65 N10       30.18R
WASHINGTON *   SUNNY     68  55  64 N9G18     30.18R
$$

ABBREVIATIONS USED IN REMARKS
   TC - TEMPERATURES IN CELSIUS
  WCI - WIND CHILL INDEX
   HX - HEAT INDEX
  VSB - VISIBILITY
$$




USA.gov is the U.S. government's official web portal to all federal, state and local government web resources and services.